GFSGBSN_700_temp_261.txt.gz
Temp
2 2 2 2 3 4 4 4 4 4 5 5 5 5 6 6 6 6 7 7 8 8 8 8 9 9 9 9 9 10 10 10 10 10 10 10 9 9 9 10 11 11 11 11 11 11 12
2 2 2 3 3 4 4 4 4 4 4 5 5 5 5 6 6 6 6 7 7 7 8 8 9 9 9 9 8 9 10 10 10 10 10 10 9 9 9 10 10 11 11 11 11 13 13
3 2 1 3 3 4 5 4 4 4 4 5 5 5 5 5 6 6 6 6 6 7 7 7 8 9 9 9 8 8 10 10 10 10 10 10 8 8 9 9 10 10 10 11 12 13 13
3 2 2 1 3 4 3 3 4 4 4 5 5 5 5 5 6 6 6 6 6 6 6 7 7 7 8 9 9 9 9 9 9 9 10 10 9 8 9 9 11 10 10 11 14 13 14
2 2 3 2 2 3 3 3 4 4 5 5 5 5 6 6 6 6 6 6 6 7 7 7 7 7 8 8 9 8 9 9 9 9 9 9 9 8 9 9 8 10 10 11 13 14 13
2 2 2 2 3 3 3 3 4 4 4 5 5 5 5 6 5 6 6 5 6 6 7 7 7 7 8 7 8 7 8 8 8 9 9 8 8 8 8 8 8 11 10 11 12 13 13
2 2 2 2 2 3 3 3 3 3 4 4 5 5 5 5 5 6 6 6 6 6 7 7 7 7 7 7 7 7 7 8 7 8 8 8 7 7 9 9 9 9 10 11 12 12 13
1 1 2 2 2 2 2 2 2 3 3 3 4 4 4 4 4 5 5 5 6 6 6 7 7 7 8 7 7 7 7 7 6 7 7 7 7 7 8 9 9 9 10 10 11 12 12
1 1 1 1 1 2 2 2 2 2 3 3 3 3 4 4 4 4 4 4 5 5 5 7 7 7 8 7 7 8 7 7 6 6 7 7 8 8 8 8 9 9 10 10 11 11 12
0 1 1 1 1 1 2 2 2 2 2 2 2 3 3 3 3 4 4 4 4 4 4 7 7 7 8 7 7 8 7 6 6 6 7 7 8 8 8 9 9 9 10 10 11 11 11
-0 -0 0 1 1 1 1 1 1 1 2 2 2 2 3 3 3 3 3 3 3 3 -1 6 6 6 6 5 5 6 5 5 5 6 6 7 7 8 8 8 9 9 10 10 11 11 11
-0 -0 -0 0 0 0 1 1 1 1 1 2 2 2 2 2 2 2 2 2 2 2 1 5 5 5 5 5 5 5 5 5 5 5 5 5 6 7 8 8 9 9 9 10 10 10 9
-1 -1 -1 -0 -0 0 0 0 1 1 1 1 1 1 1 1 1 1 1 1 1 0 3 4 3 4 4 5 4 5 5 5 5 5 4 6 5 6 7 7 8 8 9 8 8 8 8
-2 -1 -1 -1 -1 -1 -1 -0 -0 -0 -0 0 0 0 0 -0 -0 -0 -0 -1 -1 0 1 2 1 2 2 3 4 4 4 5 5 4 5 4 5 6 6 7 7 8 8 8 7 7 8
-2 -2 -2 -2 -2 -1 -1 -1 -1 -1 -0 -0 -1 -1 -1 -1 -1 -1 -1 -2 -1 0 0 0 1 2 2 3 1 2 3 4 3 3 1 1 3 5 6 6 6 5 6 7 7 8 8
-3 -3 -3 -2 -2 -2 -2 -1 -1 -1 -1 -1 -1 -2 -1 -1 -1 -2 -2 -2 -1 -1 -0 -0 -1 -0 -1 -0 0 0 1 3 1 1 0 -0 -0 4 5 5 6 5 5 6 7 6 5
-4 -3 -3 -3 -3 -3 -2 -2 -2 -2 -2 -2 -2 -2 -1 -2 -2 -2 -2 -2 -2 -2 -2 -2 -2 -2 -1 -1 -1 -1 -1 1 1 0 -0 -0 -1 1 2 4 4 5 5 3 3 5 4
-4 -4 -4 -4 -3 -3 -3 -3 -3 -2 -2 -2 -2 -3 -2 -2 -3 -3 -3 -2 -4 -3 -2 -3 -3 -2 -2 -2 -2 -2 -2 -1 -1 -1 -1 -1 -1 -1 0 4 4 4 4 3 1 1 2
-4 -4 -4 -4 -3 -3 -3 -3 -3 -3 -3 -3 -3 -3 -2 -3 -4 -4 -4 -4 -5 -5 -4 -4 -4 -4 -4 -4 -4 -3 -3 -2 -2 -1 -2 -1 -1 -2 0 4 4 3 3 1 1 1 0
-5 -5 -4 -4 -4 -4 -4 -4 -4 -4 -4 -3 -3 -4 -3 -4 -4 -4 -4 -4 -4 -5 -5 -5 -4 -5 -5 -4 -4 -4 -4 -3 -3 -2 -2 -2 -2 -2 -2 -1 -1 -2 1 1 -2 -1 1
-6 -5 -5 -5 -5 -5 -5 -5 -5 -5 -5 -5 -4 -5 -5 -6 -5 -6 -6 -6 -5 -6 -5 -5 -5 -5 -5 -5 -4 -5 -4 -4 -4 -3 -3 -3 -3 -3 -2 -2 -4 -4 -2 2 -2 0 -2
-6 -6 -6 -5 -5 -5 -5 -5 -5 -6 -6 -6 -6 -6 -6 -6 -6 -7 -8 -7 -7 -7 -7 -7 -7 -6 -6 -6 -6 -6 -7 -6 -6 -5 -4 -3 -4 -4 -3 -4 -4 -4 -3 -2 -1 -0 0
-6 -6 -6 -6 -5 -6 -5 -5 -6 -7 -7 -7 -7 -8 -8 -7 -7 -8 -8 -8 -8 -8 -8 -8 -8 -7 -7 -7 -7 -7 -7 -7 -7 -7 -6 -5 -6 -5 -5 -5 -4 -4 -2 -2 -1 0 1
-6 -6 -6 -6 -6 -6 -6 -7 -7 -8 -8 -8 -8 -8 -9 -8 -9 -9 -8 -8 -8 -8 -9 -9 -9 -8 -8 -8 -7 -7 -7 -7 -7 -7 -7 -7 -6 -6 -6 -6 -8 -4 -3 -2 -2 -1 -0
-7 -7 -7 -7 -7 -7 -7 -8 -8 -8 -8 -8 -9 -9 -10 -10 -10 -9 -10 -10 -10 -10 -9 -9 -9 -8 -8 -9 -8 -8 -7 -7 -6 -6 -6 -6 -6 -6 -6 -6 -6 -5 -4 -3 -4 -2 -2
-7 -7 -7 -8 -8 -8 -7 -8 -8 -8 -8 -9 -8 -9 -11 -11 -10 -10 -11 -11 -11 -10 -10 -9 -9 -9 -9 -9 -9 -9 -8 -8 -7 -6 -5 -6 -5 -6 -6 -6 -7 -5 -4 -4 -3 -3 -2
-7 -8 -8 -8 -8 -8 -8 -7 -8 -8 -8 -9 -8 -10 -11 -11 -9 -10 -11 -11 -10 -11 -11 -10 -9 -9 -9 -9 -9 -9 -9 -9 -8 -8 -7 -6 -5 -6 -7 -7 -7 -4 -4 -5 -5 -4 -3
-8 -8 -8 -8 -8 -8 -8 -8 -8 -8 -9 -10 -8 -10 -11 -11 -9 -11 -11 -10 -10 -10 -11 -10 -11 -10 -10 -10 -9 -9 -9 -8 -8 -8 -7 -7 -7 -7 -6 -7 -7 -5 -5 -5 -4 -5 -5
-9 -8 -8 -8 -8 -8 -8 -8 -8 -8 -8 -10 -9 -9 -11 -11 -11 -11 -10 -9 -10 -9 -11 -10 -11 -10 -10 -10 -10 -10 -9 -10 -9 -8 -8 -8 -7 -7 -7 -6 -6 -5 -6 -6 -4 -4 -4

GFSGBSN_700_temp_264.txt.gz
Temp
3 3 3 3 3 3 3 4 4 4 4 4 4 5 5 6 6 6 6 7 8 8 8 9 9 9 9 9 9 10 10 10 10 10 10 10 10 10 10 10 10 10 11 11 11 11 11
2 2 2 2 3 3 3 4 4 5 5 5 5 5 5 5 6 6 6 6 7 7 8 8 9 9 9 9 9 9 10 10 10 10 10 10 10 10 10 10 10 11 11 11 12 12 12
2 1 2 2 3 3 3 4 5 4 5 5 5 5 5 5 5 6 6 6 7 7 7 8 8 8 9 9 8 9 10 10 9 10 10 10 9 10 10 11 10 10 11 12 13 13 13
2 2 2 2 3 3 4 4 5 5 5 5 5 5 6 5 6 6 6 6 7 7 7 7 7 8 9 8 8 8 8 9 9 9 9 9 9 9 9 10 10 10 10 11 14 13 13
1 2 3 3 4 3 3 4 5 5 5 5 5 6 6 6 6 6 6 6 7 7 7 7 7 7 8 9 9 8 9 9 9 9 9 9 9 9 8 8 9 10 10 11 12 12 12
0 1 1 2 3 3 3 4 5 4 4 4 5 6 6 6 6 6 6 6 6 6 6 6 7 7 8 8 8 9 8 8 8 9 8 9 9 9 8 8 8 10 9 10 10 14 11
1 1 2 2 3 2 4 4 4 4 4 4 5 5 5 6 6 6 6 6 6 6 6 6 6 7 7 7 7 8 7 8 8 8 8 9 8 7 9 9 9 8 8 8 10 12 10
1 2 3 3 3 2 3 3 3 3 4 4 4 4 4 5 5 5 6 6 6 6 6 6 7 7 7 7 7 7 7 7 7 7 8 8 8 9 8 8 7 8 8 8 9 10 10
1 2 2 2 2 2 2 2 3 3 3 3 4 4 4 4 4 4 5 5 5 5 6 8 7 7 7 7 7 7 6 6 6 7 6 6 8 8 8 8 7 8 8 8 9 10 10
1 1 1 2 2 2 2 2 2 3 3 3 3 3 3 4 4 4 4 4 4 4 5 6 6 6 6 6 7 7 7 6 6 6 6 6 6 6 7 7 7 7 8 8 9 9 9
-0 0 1 1 1 2 2 2 2 2 2 2 3 3 3 3 3 3 3 3 3 4 -1 5 4 5 5 5 5 5 5 5 5 5 5 6 6 6 6 6 7 7 8 8 8 9 9
-1 -0 0 0 1 1 1 2 2 2 2 2 2 2 3 3 2 3 3 3 3 3 3 5 4 4 4 4 4 4 5 4 4 5 5 5 5 5 5 5 6 6 7 7 8 8 7
-1 -1 0 0 0 1 1 1 1 1 2 1 2 2 2 2 2 2 2 2 2 2 3 2 3 4 3 4 4 4 4 4 4 4 4 5 5 5 5 5 6 6 6 6 6 7 7
-1 -1 -1 -0 0 0 0 1 0 1 1 1 1 1 1 1 1 1 1 1 1 1 1 0 1 2 2 3 3 4 3 3 3 3 2 3 3 4 5 5 4 5 5 5 5 5 6
-1 -1 -1 -0 -1 -1 -1 -0 0 0 1 0 0 0 1 0 0 -0 -0 -0 1 0 -1 0 1 1 1 2 1 2 1 1 0 1 0 0 2 3 3 4 3 4 4 5 4 4 4
-2 -2 -2 -1 -1 -1 -1 -1 -0 -0 -0 -0 0 -0 -0 -1 -0 -1 -1 -0 -0 -1 -1 -1 -1 -1 -1 -0 0 -0 1 0 -0 -0 -1 -1 -0 2 4 4 4 4 4 4 4 1 2
-3 -2 -2 -2 -2 -2 -1 -1 -1 -1 -1 -0 -1 -1 -0 -1 -1 -1 -2 -1 -1 -2 -1 -2 -2 -2 -2 -2 -2 -2 -1 0 -1 -1 -2 -1 -1 1 2 3 2 3 2 3 2 1 1
-3 -3 -3 -2 -2 -3 -2 -2 -2 -1 -1 -1 -1 -2 -1 -1 -2 -2 -1 -2 -3 -2 -3 -3 -3 -3 -3 -3 -3 -3 -3 -2 -2 -2 -2 -2 -2 -2 0 1 2 2 -1 0 -0 -0 -0
-4 -4 -3 -3 -3 -3 -2 -2 -2 -2 -2 -2 -2 -2 -1 -2 -2 -2 -3 -2 -3 -3 -3 -4 -4 -4 -4 -4 -4 -4 -4 -3 -3 -3 -3 -3 -2 -3 1 2 1 -0 -1 -2 -2 -2 -1
-4 -4 -4 -3 -3 -3 -3 -3 -3 -2 -2 -2 -3 -3 -2 -2 -2 -3 -4 -4 -4 -5 -4 -5 -5 -5 -5 -5 -5 -5 -5 -5 -5 -5 -3 -3 -3 -3 -3 -2 -3 -2 -1 -3 -3 -2 -2
-5 -4 -4 -4 -4 -3 -4 -4 -3 -3 -3 -3 -4 -4 -3 -3 -3 -4 -4 -4 -4 -5 -5 -6 -5 -5 -6 -6 -6 -5 -5 -6 -6 -5 -5 -5 -4 -4 -4 -4 -4 -4 -4 -3 -4 -3 -3
-5 -5 -5 -5 -5 -4 -4 -4 -4 -4 -4 -4 -4 -5 -4 -4 -5 -5 -5 -5 -5 -6 -8 -6 -7 -7 -6 -7 -7 -8 -7 -7 -7 -7 -6 -5 -5 -5 -4 -4 -4 -4 -4 -4 -4 -2 -3
-5 -5 -5 -5 -5 -5 -5 -4 -5 -4 -5 -5 -5 -5 -6 -6 -6 -6 -6 -7 -7 -7 -7 -8 -8 -8 -7 -7 -7 -8 -8 -8 -7 -8 -7 -6 -6 -6 -5 -5 -5 -5 -3 -3 -3 -3 -3
-6 -6 -6 -5 -6 -5 -5 -5 -5 -5 -5 -6 -6 -6 -6 -6 -6 -6 -7 -8 -8 -8 -9 -8 -8 -8 -8 -9 -8 -8 -8 -8 -8 -7 -7 -7 -7 -7 -7 -6 -8 -4 -4 -4 -4 -4 -3
-6 -6 -6 -6 -6 -6 -6 -6 -6 -7 -7 -7 -7 -7 -8 -7 -6 -6 -7 -8 -8 -7 -8 -9 -8 -8 -9 -9 -9 -9 -9 -8 -7 -7 -6 -7 -7 -7 -7 -7 -6 -5 -4 -5 -5 -5 -5
-7 -7 -6 -6 -6 -6 -7 -7 -8 -8 -8 -7 -8 -8 -8 -9 -6 -7 -8 -7 -7 -9 -9 -9 -9 -10 -10 -10 -10 -10 -9 -9 -9 -7 -6 -7 -7 -8 -7 -8 -10 -3 -5 -6 -6 -6 -5
-7 -7 -7 -7 -7 -7 -7 -8 -8 -8 -8 -7 -7 -9 -9 -9 -6 -8 -8 -9 -9 -10 -10 -9 -9 -10 -10 -10 -10 -10 -10 -10 -9 -9 -8 -8 -7 -7 -8 -8 -7 -6 -5 -6 -6 -5 -5
-7 -7 -7 -7 -8 -8 -8 -8 -8 -8 -8 -8 -8 -8 -9 -9 -8 -9 -8 -8 -8 -9 -10 -10 -11 -10 -10 -10 -10 -9 -10 -9 -9 -9 -9 -9 -9 -8 -7 -7 -8 -7 -6 -6 -6 -5 -5
-8 -8 -8 -8 -8 -8 -8 -8 -8 -8 -9 -8 -7 -8 -10 -11 -8 -7 -7 -8 -8 -9 -10 -10 -10 -11 -11 -11 -10 -10 -10 -11 -10 -10 -9 -9 -8 -8 -9 -8 -7 -7 -7 -7 -6 -5 -5

GFSGBSN_700_temp_270.txt.gz
Temp
3 3 4 4 5 5 5 5 5 5 5 5 6 6 7 7 8 8 8 8 9 9 9 9 10 10 10 10 10 11 11 10 10 10 10 10 10 10 10 10 10 10 10 11 11 11 11
3 3 4 4 4 4 5 5 5 5 5 5 5 5 5 6 6 7 7 7 8 8 8 9 9 9 10 10 10 10 10 10 10 10 10 10 10 10 10 10 10 10 11 11 11 11 11
2 2 3 3 4 4 4 4 4 4 4 4 5 5 5 6 6 6 6 7 7 8 8 9 9 9 10 9 10 10 10 10 10 10 10 10 10 10 10 10 10 11 11 11 12 11 11
1 2 2 3 3 3 3 4 4 4 4 4 5 5 6 6 6 7 7 7 7 8 8 8 8 9 10 9 9 9 9 10 9 9 10 9 9 9 9 9 10 10 10 11 11 11 11
1 1 2 2 2 2 3 4 4 4 4 5 5 5 6 6 6 7 7 7 8 8 8 8 8 8 9 9 9 9 9 9 9 9 9 9 9 9 8 9 9 9 9 10 10 10 10
-0 0 1 1 2 2 3 3 4 4 5 5 5 6 6 6 6 7 7 7 7 7 7 7 7 7 7 8 7 7 7 7 8 8 8 8 8 8 8 8 8 9 9 8 8 9 10
1 1 1 1 2 2 3 4 4 4 5 5 5 6 6 6 7 7 7 7 7 7 7 7 7 7 7 7 6 6 7 7 7 7 7 7 7 7 8 8 7 7 7 7 7 8 8
0 -0 0 1 2 2 3 4 4 4 5 5 5 5 5 6 7 7 7 7 7 7 7 7 7 7 7 7 7 7 6 6 6 6 6 6 6 7 7 7 7 7 6 6 7 7 6
-1 -1 0 1 2 2 3 2 3 4 5 4 4 5 6 6 6 6 6 6 6 6 6 6 6 6 6 6 6 7 6 6 5 5 5 6 6 6 6 6 6 6 6 6 6 5 6
-1 -1 -0 0 0 2 3 3 4 4 4 4 4 5 5 5 5 5 6 6 6 6 6 5 5 5 5 5 5 5 5 6 6 5 5 5 5 5 5 5 5 5 5 5 5 5 4
-2 -1 -0 -0 0 2 2 3 3 3 4 4 4 4 4 4 4 5 5 5 5 5 -0 4 4 3 4 4 4 4 5 5 5 5 5 5 5 4 4 4 4 5 4 4 4 4 4
-2 -1 -1 1 1 1 2 3 3 3 3 3 3 3 3 4 4 4 4 4 4 5 3 3 2 3 3 3 4 3 4 4 4 4 4 4 4 4 4 4 4 4 4 4 4 4 3
-1 -1 0 1 1 1 2 2 2 3 2 2 3 3 3 3 3 4 4 4 3 4 2 1 2 2 3 3 3 3 3 4 4 3 4 4 4 4 4 4 4 3 3 3 2 2 3
-1 0 -1 -0 0 1 1 1 2 2 2 2 2 2 3 3 3 3 3 3 3 1 1 1 1 1 2 2 2 2 2 2 2 2 2 2 3 3 3 3 2 3 3 2 1 1 2
-1 -0 -1 -1 -0 0 1 1 1 1 2 2 2 2 2 2 2 3 2 2 1 0 1 0 0 1 1 1 1 1 1 1 1 1 1 0 0 1 1 2 2 2 2 2 2 2 -0
-1 -1 -1 -0 -0 -0 -0 1 1 1 1 1 1 1 2 2 2 2 1 1 1 0 -0 0 0 0 0 1 1 1 0 -1 -1 -1 -1 -2 -2 -0 -1 -0 1 1 1 1 1 -2 -1
-2 -2 -1 -1 -0 -0 -1 0 0 1 1 1 1 1 1 1 1 1 1 1 0 0 -0 -1 -0 -1 -1 -1 -1 -1 -1 -1 -2 -1 -1 -2 -2 -1 -1 -1 -1 -1 1 0 -1 0 -2
-2 -2 -2 -1 -1 -1 -1 -1 -0 -0 0 0 0 1 1 1 0 0 0 -0 -0 -1 -1 -1 -1 -1 -2 -2 -2 -3 -3 -4 -3 -3 -2 -3 -3 -3 -2 -2 -1 -0 -3 -3 -2 -2 -3
-3 -2 -2 -2 -2 -1 -2 -2 -1 -1 -0 -0 0 0 0 0 -0 -0 -0 -0 -1 -1 -2 -2 -2 -2 -3 -3 -3 -4 -4 -4 -4 -5 -4 -4 -4 -4 -2 -2 -3 -3 -3 -4 -4 -4 -4
-4 -3 -3 -2 -3 -2 -2 -2 -1 -1 -1 -0 -0 -0 -0 -1 -1 -1 -1 -1 -1 -1 -2 -2 -3 -3 -3 -4 -5 -5 -5 -6 -6 -5 -5 -6 -6 -5 -5 -4 -5 -5 -4 -3 -5 -5 -4
-4 -4 -3 -3 -3 -3 -3 -2 -2 -2 -1 -1 -1 -0 -0 -1 -1 -1 -1 -2 -2 -2 -2 -2 -3 -3 -4 -4 -4 -5 -6 -6 -6 -6 -6 -6 -7 -6 -6 -6 -6 -6 -6 -6 -6 -5 -5
-5 -4 -4 -4 -4 -4 -3 -2 -2 -2 -2 -2 -1 -1 -1 -1 -2 -2 -2 -2 -2 -3 -3 -3 -4 -4 -5 -6 -7 -7 -7 -7 -8 -7 -7 -8 -8 -8 -7 -8 -7 -6 -6 -7 -6 -6 -6
-5 -5 -5 -4 -4 -4 -3 -3 -3 -3 -3 -2 -2 -2 -2 -2 -2 -3 -2 -2 -3 -3 -4 -4 -4 -5 -6 -7 -7 -7 -7 -8 -8 -9 -9 -9 -9 -9 -9 -8 -8 -8 -6 -5 -5 -6 -5
-6 -5 -5 -5 -5 -4 -4 -4 -3 -3 -3 -3 -3 -3 -3 -2 -3 -3 -3 -3 -4 -4 -5 -5 -6 -7 -6 -6 -6 -6 -7 -7 -6 -6 -7 -8 -9 -10 -9 -9 -9 -6 -6 -6 -6 -6 -5
-6 -6 -6 -6 -5 -5 -5 -4 -4 -4 -3 -3 -3 -3 -3 -3 -3 -3 -4 -4 -5 -6 -6 -5 -6 -6 -6 -7 -8 -8 -7 -7 -6 -7 -7 -8 -8 -10 -10 -9 -8 -8 -7 -6 -6 -5 -6
-6 -6 -6 -6 -6 -5 -5 -5 -5 -5 -4 -4 -3 -4 -4 -4 -4 -4 -5 -5 -5 -6 -6 -6 -7 -6 -7 -8 -9 -10 -10 -10 -8 -8 -8 -8 -8 -9 -9 -9 -10 -7 -7 -6 -7 -7 -6
-7 -6 -6 -6 -6 -6 -6 -6 -6 -5 -5 -5 -5 -5 -5 -4 -4 -4 -5 -5 -6 -6 -6 -6 -7 -8 -8 -9 -10 -10 -10 -10 -10 -9 -9 -9 -9 -9 -9 -9 -8 -8 -8 -7 -7 -6 -7
-8 -7 -7 -7 -7 -7 -7 -7 -6 -6 -6 -6 -6 -6 -5 -4 -5 -4 -4 -5 -6 -6 -7 -7 -7 -7 -8 -9 -9 -10 -10 -10 -10 -10 -10 -10 -10 -10 -9 -9 -9 -7 -8 -8 -7 -7 -7
-8 -8 -7 -7 -7 -7 -7 -7 -7 -7 -7 -7 -7 -6 -5 -4 -5 -5 -5 -6 -5 -7 -7 -8 -7 -8 -8 -9 -10 -10 -11 -11 -11 -11 -10 -11 -10 -9 -9 -9 -8 -8 -8 -8 -8 -8 -8

GFSGBSN_700_temp_276.txt.gz
Temp
4 5 4 5 5 5 5 5 5 5 6 6 7 7 8 8 8 9 9 9 9 9 10 10 10 10 11 10 10 10 10 10 10 10 10 10 10 10 10 11 11 11 10 11 10 10 10
4 4 4 4 4 5 5 5 5 5 6 6 6 7 7 8 8 8 9 9 9 9 9 10 10 10 10 10 10 10 10 10 10 10 10 10 10 10 10 10 10 10 10 11 10 10 10
4 4 4 4 4 5 5 5 5 5 5 6 6 6 7 7 7 8 8 8 9 9 9 9 10 10 10 10 10 10 10 10 10 10 10 9 10 10 10 9 9 10 9 9 11 9 9
3 3 3 4 4 4 4 4 4 5 5 5 6 6 6 6 7 7 8 8 8 9 9 9 9 9 10 10 9 10 10 10 10 9 9 9 9 9 9 9 8 8 9 10 11 9 9
3 3 3 3 4 4 4 4 4 4 5 5 5 5 5 5 6 7 7 8 8 8 8 8 9 8 9 9 9 9 9 9 9 9 9 8 8 8 8 8 9 10 10 10 9 9 8
2 2 3 3 3 4 4 4 4 4 4 4 4 4 5 5 5 6 6 7 7 7 8 8 8 8 8 8 8 7 8 8 8 8 8 8 7 7 8 8 10 9 9 9 9 8 8
2 2 3 3 3 3 4 3 3 4 4 4 4 4 4 5 5 5 6 6 7 7 8 8 7 7 7 7 7 8 8 7 7 7 7 6 7 8 8 7 6 6 7 7 8 7 6
2 2 3 3 2 3 3 3 3 3 3 3 3 4 4 4 5 5 6 6 6 6 7 7 7 7 7 7 7 8 8 7 7 6 7 7 7 7 6 5 5 6 6 7 7 7 6
2 2 2 2 2 3 2 2 2 2 3 3 3 4 4 5 5 5 6 6 6 7 7 7 7 7 7 7 7 7 7 7 6 6 6 6 7 5 5 5 6 6 6 6 6 6 6
1 2 2 1 2 2 2 2 2 2 3 3 4 4 5 4 5 5 5 6 6 6 6 6 5 6 5 6 5 5 5 6 5 5 6 5 5 5 5 5 5 6 6 5 5 5 7
1 1 2 1 1 2 1 1 2 2 3 3 3 4 4 5 5 5 5 5 5 6 7 5 4 5 5 5 5 5 5 5 4 4 5 5 4 4 4 4 4 5 4 4 5 5 6
-1 0 1 0 0 0 1 1 2 2 2 3 3 4 4 5 5 4 4 5 5 5 6 4 4 4 4 4 4 4 4 4 4 4 4 4 4 4 4 4 3 3 4 5 6 6 7
-1 -1 -0 -0 -0 -0 1 0 1 2 2 3 3 4 5 5 4 4 4 4 4 4 5 3 3 3 3 3 4 4 3 4 4 4 4 3 3 2 3 3 3 3 4 6 8 8 9
-2 -2 -1 -0 -1 -1 -0 -0 1 1 2 2 3 4 4 4 4 4 4 3 3 4 4 4 3 3 3 3 3 3 2 1 2 2 3 3 5 2 2 2 2 2 2 4 5 7 7
-2 -3 -1 -2 -1 -1 -1 0 1 0 2 2 3 4 3 3 3 3 3 3 4 4 4 3 3 2 2 3 2 2 2 1 1 1 1 1 2 2 1 2 1 3 2 2 2 3 4
-2 -2 -2 -2 -1 -1 -1 -1 -0 0 2 3 3 3 2 3 3 3 2 3 3 3 4 3 1 2 1 1 1 1 -0 -0 0 0 -0 -2 -1 -0 0 -0 0 0 1 2 2 2 4
-2 -2 -2 -2 -3 -2 -1 -2 -0 1 1 2 2 2 2 2 2 2 2 2 3 3 2 2 1 1 1 1 1 0 -1 -1 -0 -1 -1 -1 -2 -0 -2 -0 0 0 1 0 0 1 4
-2 -2 -2 -2 -1 -0 0 1 0 1 1 1 1 1 2 2 2 2 2 2 3 2 2 2 1 1 0 0 -0 -1 -2 -1 -1 -1 -3 -2 -2 -2 -1 -1 -2 -2 -2 -1 0 1 1
-2 -2 -1 -1 -2 -1 -1 -1 -0 0 0 0 0 1 1 1 1 2 2 2 2 1 1 1 1 0 0 -0 -1 -2 -1 -1 -1 -2 -2 -4 -3 -2 2 -1 -2 -2 -2 -3 -3 -3 -2
-4 -4 -3 -3 -2 -2 -2 -1 -1 -0 -0 -0 0 0 1 1 1 1 1 1 1 1 0 0 0 -0 -1 -1 -1 -2 -3 -2 -2 -3 -3 -5 -5 -4 -2 -1 -3 -3 -3 -3 -4 -4 -3
-4 -4 -3 -3 -3 -3 -2 -2 -1 -0 -1 -1 -0 1 1 1 0 0 1 1 1 0 -0 -0 -1 -1 -1 -2 -2 -2 -2 -3 -3 -3 -4 -5 -5 -4 -4 -5 -5 -5 -5 -6 -5 -5 -5
-4 -4 -4 -4 -3 -3 -3 -2 -1 -0 -1 -1 -0 0 1 1 1 -0 0 0 0 0 -0 -0 -1 -1 -2 -2 -3 -4 -3 -3 -4 -4 -5 -7 -7 -7 -6 -6 -6 -6 -6 -6 -6 -6 -5
-4 -4 -4 -3 -3 -3 -2 -2 -2 -1 -1 -1 -1 -0 -0 0 0 -0 -0 -0 0 -0 -1 -1 -2 -2 -2 -2 -2 -3 -2 -3 -4 -4 -6 -8 -8 -8 -7 -6 -7 -6 -5 -5 -5 -5 -5
-5 -5 -4 -4 -3 -3 -3 -3 -2 -2 -2 -2 -1 -1 -1 -0 -1 -1 -1 -1 -1 -1 -2 -2 -2 -2 -2 -2 -3 -3 -3 -3 -3 -4 -5 -6 -8 -8 -8 -7 -6 -4 -5 -6 -6 -6 -6
-6 -5 -5 -4 -4 -3 -3 -3 -3 -3 -2 -2 -2 -2 -1 -1 -1 -1 -1 -1 -2 -2 -3 -2 -2 -2 -3 -3 -4 -4 -4 -4 -4 -4 -5 -6 -9 -8 -8 -7 -6 -6 -5 -5 -6 -6 -6
-6 -6 -5 -5 -4 -4 -4 -3 -3 -3 -3 -2 -2 -2 -2 -2 -1 -1 -2 -2 -2 -3 -3 -3 -3 -3 -4 -5 -5 -5 -6 -7 -7 -7 -7 -8 -9 -8 -8 -8 -6 -4 -6 -7 -7 -7 -6
-6 -6 -6 -6 -5 -5 -4 -4 -4 -3 -3 -3 -3 -2 -2 -2 -2 -2 -2 -3 -3 -3 -4 -3 -3 -4 -5 -5 -6 -8 -8 -7 -7 -7 -6 -8 -8 -8 -8 -8 -7 -6 -7 -7 -7 -5 -6
-6 -6 -6 -7 -7 -6 -5 -5 -4 -4 -4 -4 -3 -3 -3 -3 -3 -3 -3 -4 -4 -4 -4 -4 -5 -5 -5 -6 -7 -7 -8 -8 -9 -8 -7 -8 -7 -7 -7 -7 -7 -6 -7 -8 -8 -8 -8
-7 -7 -7 -7 -6 -6 -6 -6 -5 -5 -5 -4 -4 -4 -4 -4 -4 -4 -4 -4 -5 -4 -4 -5 -5 -5 -5 -6 -7 -8 -8 -9 -9 -8 -8 -8 -8 -8 -8 -7 -7 -8 -9 -9 -10 -10 -9

GFSGBSN_700_temp_279.txt.gz
Temp
4 5 5 5 5 6 6 6 6 7 7 7 8 8 8 8 9 9 9 9 9 9 10 10 10 10 10 9 9 10 11 11 11 11 11 11 10 10 11 11 11 11 12 11 11 11 11
4 4 5 5 5 5 5 6 6 6 7 7 7 7 8 8 8 8 9 9 9 9 9 10 10 10 10 9 10 10 10 10 10 10 10 10 9 9 11 10 10 11 10 10 11 12 12
4 4 5 4 5 5 5 5 6 6 6 7 7 7 7 8 8 8 8 9 9 9 9 9 9 10 9 9 10 10 11 10 10 10 10 10 10 10 9 9 10 9 10 11 12 13 11
4 4 4 4 4 5 5 5 6 6 6 6 7 7 7 7 7 8 8 8 9 9 9 9 9 10 9 10 10 10 10 9 10 10 9 9 9 9 9 9 9 10 11 12 13 12 11
3 4 4 4 4 5 5 5 5 6 6 6 7 7 7 7 7 7 8 8 8 8 9 9 9 9 8 10 10 10 10 9 9 9 9 9 9 8 9 9 11 12 13 13 13 12 11
3 3 4 4 4 4 4 5 5 5 6 6 6 6 7 6 6 7 7 7 7 8 8 8 8 9 8 8 9 9 9 8 8 8 8 8 8 8 10 10 12 10 10 11 11 11 10
3 3 3 4 4 4 4 4 5 5 5 5 6 6 6 6 6 6 6 6 7 7 7 7 8 8 8 8 8 7 9 8 7 7 8 9 8 10 10 9 8 8 9 9 10 10 9
3 3 3 3 4 4 4 4 4 4 5 5 5 5 5 6 6 6 6 6 6 6 6 7 7 7 8 8 7 6 8 7 7 8 8 8 9 8 8 7 8 8 9 9 10 9 9
2 2 3 3 3 3 4 4 4 4 4 4 4 4 5 5 5 6 6 6 6 6 6 5 6 7 7 7 7 6 7 6 6 7 8 8 9 7 7 7 8 8 8 9 8 8 8
2 2 2 2 3 3 3 3 3 4 4 4 4 4 4 4 5 5 6 6 6 6 6 6 5 5 6 6 4 6 6 6 6 6 6 7 6 6 7 7 7 7 8 7 7 7 9
1 1 1 2 2 3 3 3 3 3 3 3 4 3 4 5 5 5 5 6 5 5 7 5 4 6 5 5 5 5 5 5 5 6 6 7 6 6 6 7 5 6 6 6 6 7 8
-1 1 1 1 1 2 3 3 2 3 3 3 3 3 4 4 5 5 5 5 5 5 6 4 5 4 4 4 4 4 4 5 5 5 6 6 5 5 4 5 5 5 5 7 7 8 10
-1 0 1 1 1 2 2 1 2 2 2 2 3 3 4 4 5 5 5 4 4 5 6 4 4 4 3 3 3 3 4 4 5 6 8 7 7 4 4 5 6 6 6 7 9 11 12
-1 -1 -1 -0 -0 1 2 1 1 1 2 2 3 3 4 4 5 5 4 4 4 5 4 4 5 4 4 4 3 3 4 5 3 3 5 6 7 4 2 3 4 4 5 6 6 8 9
-1 -2 -3 -1 -0 -0 1 1 1 1 1 1 2 2 3 4 4 4 4 2 3 4 3 3 4 4 4 2 3 3 2 2 1 3 3 4 5 3 3 2 2 5 4 5 4 5 6
-2 -2 -2 -1 -1 -0 0 1 0 1 1 1 1 2 3 4 4 3 3 2 2 4 4 5 4 3 4 3 3 3 2 1 1 2 2 1 1 3 2 1 2 2 3 3 4 4 5
-3 -3 -3 -1 -1 -0 -0 0 -0 -0 0 -0 1 2 3 3 2 2 2 2 3 4 4 3 2 2 2 2 2 2 1 1 1 -1 1 -0 0 2 1 2 3 3 3 3 3 3 4
-3 -3 -3 -3 -2 -1 -1 -0 -1 -1 -0 -1 0 1 2 2 2 1 0 1 3 3 3 3 2 1 1 1 1 1 1 -1 1 0 -1 -1 -1 -0 1 2 2 0 0 1 1 2 2
-3 -2 -3 -3 -3 -3 -2 -0 -0 -0 -0 -1 -0 0 1 1 1 1 2 2 2 2 2 2 1 1 1 -0 0 -1 -2 1 0 -0 -2 -2 -0 0 5 2 1 1 1 0 -0 -0 -0
-4 -3 -3 -3 -3 -3 -2 -1 -1 -1 -0 -1 -0 -0 0 1 1 0 1 2 2 2 2 2 2 2 1 -0 -0 -1 -2 0 -0 -1 -1 -2 -3 -2 0 0 -1 -1 -1 -1 -2 -2 -1
-4 -2 -3 -2 -1 -2 -2 -1 -1 -1 -1 -1 -1 -1 1 1 1 1 -0 0 1 2 1 1 1 1 -0 -1 -2 -2 -2 -3 -2 -1 -2 -4 -4 -2 -2 -2 -2 -2 -2 -2 -2 -2 -2
-3 -4 -4 -3 -2 -1 -1 -1 -1 -1 -1 -1 -1 -0 0 1 1 1 1 1 0 0 1 -0 -1 -2 -1 -2 -2 -2 -3 -4 -4 -5 -5 -5 -4 -4 -4 -3 -2 -3 -3 -3 -3 -3 -3
-4 -4 -3 -3 -3 -2 -2 -2 -1 -1 -1 -1 -1 -1 -1 1 1 -1 -1 -0 -1 1 0 0 -1 -3 -2 -4 -2 -1 -2 -2 -3 -3 -5 -5 -5 -5 -4 -3 -4 -4 -2 -2 -3 -3 -3
-4 -4 -4 -3 -3 -3 -3 -2 -2 -2 -2 -1 -1 -1 -1 -0 0 -1 0 0 -1 0 -1 -0 -1 -2 -2 -2 -2 -2 -2 -2 -2 -2 -3 -5 -6 -6 -6 -5 -4 -2 -2 -3 -3 -3 -3
-5 -5 -4 -4 -4 -3 -3 -2 -2 -2 -2 -2 -1 -1 -1 -1 -1 -0 -0 -1 -0 -0 -1 -1 -1 -1 -2 -2 -3 -3 -5 -5 -4 -3 -4 -4 -6 -6 -6 -5 -5 -4 -3 -4 -4 -5 -4
-5 -6 -5 -5 -5 -5 -4 -3 -3 -2 -2 -2 -1 -2 -1 -1 -1 -1 -1 -1 -1 -2 -1 -2 -2 -2 -3 -3 -4 -4 -4 -4 -3 -4 -5 -6 -7 -7 -6 -6 -5 -3 -4 -5 -5 -5 -4
-6 -5 -5 -6 -6 -5 -5 -4 -4 -3 -2 -2 -2 -2 -1 -1 -2 -2 -2 -1 -2 -3 -5 -2 -2 -3 -3 -6 -6 -6 -5 -5 -4 -4 -4 -5 -6 -6 -6 -7 -6 -5 -5 -6 -7 -6 -7
-6 -6 -6 -6 -5 -6 -5 -5 -4 -4 -3 -3 -2 -2 -2 -2 -2 -2 -2 -3 -3 -3 -5 -3 -3 -4 -4 -6 -6 -7 -6 -5 -6 -5 -5 -5 -5 -5 -5 -5 -5 -5 -5 -7 -8 -8 -8
-6 -6 -6 -6 -6 -6 -5 -5 -5 -4 -4 -3 -3 -3 -3 -2 -2 -2 -3 -3 -2 -2 -5 -4 -5 -4 -5 -6 -6 -7 -7 -8 -7 -5 -5 -6 -6 -6 -6 -6 -6 -7 -8 -8 -9 -9 -10

GFSGBSN_700_temp_282.txt.gz
Temp
5 5 5 6 6 6 6 7 7 7 7 8 8 8 9 9 9 9 9 9 10 10 10 10 10 11 11 10 10 11 11 11 11 11 11 11 11 10 11 12 12 12 13 12 12 12 12
5 5 5 5 6 6 6 6 7 7 7 8 8 9 9 9 9 9 9 9 9 9 10 10 10 10 10 9 10 11 11 11 11 11 11 11 9 10 11 11 11 11 11 11 11 12 12
4 4 5 5 5 5 6 6 6 7 7 8 8 8 9 9 9 9 9 9 9 9 9 9 10 10 9 10 10 11 11 11 11 11 11 10 10 9 10 10 10 10 11 11 12 13 13
3 3 5 4 5 5 5 6 6 7 7 7 8 8 9 9 9 9 9 9 9 9 9 9 9 9 9 10 10 11 11 10 10 10 10 10 10 10 10 9 9 10 11 12 13 14 13
3 3 4 4 4 5 5 6 6 6 6 7 7 8 8 9 9 9 9 9 9 9 9 9 9 9 8 9 10 9 10 10 10 9 9 10 9 9 9 10 11 12 12 12 12 12 12
3 3 4 4 4 4 5 5 5 6 6 6 7 7 8 8 8 8 8 8 8 8 8 8 8 9 8 8 9 8 9 9 9 9 8 8 9 9 10 11 11 10 10 10 11 11 11
3 3 3 4 4 4 5 6 5 5 6 6 7 7 7 7 8 8 8 8 8 8 8 8 8 8 7 9 8 8 8 9 8 8 8 9 9 10 10 9 9 9 10 10 10 11 11
3 3 3 3 4 3 4 5 5 5 5 6 6 7 7 7 7 7 8 8 7 7 8 8 8 8 8 8 8 7 8 7 8 8 9 9 10 9 8 9 9 9 9 10 10 10 9
3 3 3 3 3 4 4 4 5 5 5 5 6 6 6 6 6 7 7 7 7 7 7 6 7 7 7 7 6 6 8 8 8 8 9 9 10 9 8 8 9 9 9 9 9 8 8
2 3 3 3 3 3 3 4 4 4 5 5 5 5 6 5 6 6 6 6 7 6 6 6 6 6 6 6 5 6 7 7 7 8 7 8 8 8 7 8 8 8 8 7 7 8 8
2 2 2 2 2 3 3 3 3 4 4 4 4 4 5 5 5 6 6 6 6 6 7 6 5 6 6 5 6 5 7 6 7 6 7 8 7 7 7 7 6 7 6 6 7 8 8
1 2 2 2 2 2 2 2 3 4 4 4 4 4 5 5 5 5 5 6 6 5 6 6 5 5 5 5 5 5 5 6 6 6 7 7 7 7 6 7 6 7 7 7 8 9 10
0 0 1 1 1 2 2 2 3 3 3 3 3 3 4 4 5 5 5 5 5 5 6 6 5 5 5 5 5 5 5 5 6 6 8 8 8 6 6 5 6 6 6 7 9 9 10
-0 -0 -0 0 1 1 1 2 2 3 3 3 2 2 3 4 4 5 5 4 4 6 7 6 5 4 5 5 4 5 5 6 5 5 6 8 8 6 4 4 4 4 5 6 6 7 8
-0 -0 -1 -1 -0 0 1 1 2 2 2 2 2 2 3 3 4 4 4 3 4 6 5 4 4 5 5 4 5 4 4 4 3 4 4 5 6 5 4 4 4 5 5 5 5 5 6
-1 -1 -2 -1 -1 -1 0 1 1 2 1 1 1 2 2 3 3 4 3 3 3 4 4 5 5 5 7 5 4 4 4 3 2 3 3 3 2 4 4 4 4 3 4 4 5 4 4
-1 -1 -1 -2 -2 -2 -1 0 1 1 1 0 1 1 2 2 3 3 3 3 3 3 4 4 4 4 5 4 4 4 3 2 2 1 3 1 1 3 3 4 4 4 4 4 3 3 4
-1 -1 -1 -2 -2 -2 -1 -1 -0 -0 0 -0 0 0 1 2 2 2 3 2 2 2 4 4 3 3 3 3 3 3 3 1 2 2 2 0 1 0 3 3 3 3 2 2 2 2 2
-2 -2 -3 -3 -2 -2 -2 -1 -1 -0 -1 0 -0 -0 0 1 1 1 1 1 1 2 3 3 2 2 2 2 2 2 1 2 2 1 1 -0 0 1 5 3 2 2 2 1 1 1 1
-4 -4 -3 -3 -3 -2 -2 -2 -2 -1 -1 -1 -1 -2 0 0 1 1 1 0 1 2 2 3 1 3 2 1 1 1 -0 0 1 0 1 -0 -1 -1 0 1 0 0 0 -0 -0 -0 -0
-4 -4 -3 -2 -3 -3 -3 -3 -2 -1 -1 -1 -2 -2 -1 0 1 1 1 0 -0 2 2 2 1 2 1 1 1 -0 -0 -1 -1 -0 -0 -1 -3 -2 -2 -1 -1 -1 -1 -0 -0 -0 -0
-4 -4 -4 -4 -5 -6 -6 -5 -2 -2 -3 -4 -4 -3 -0 -1 0 0 -0 0 0 -0 1 1 1 -0 -0 -0 0 -0 -1 -2 -2 -3 -2 -3 -3 -3 -3 -2 -1 -1 -2 -2 -1 -1 -1
-4 -4 -4 -4 -4 -4 -3 -3 -2 -2 -2 -2 -1 -1 -0 -1 -0 -1 -1 -0 0 -1 0 0 -0 -1 -1 -1 -1 0 0 -0 -1 -1 -3 -4 -4 -4 -3 -2 -3 -2 -1 -2 -2 -2 -2
-4 -3 -4 -3 -3 -3 -3 -2 -2 -2 -2 -1 -1 -1 -1 -0 -1 -1 -1 -1 -1 -1 -1 0 -0 -2 -1 -0 -1 -1 -1 -1 -1 -1 -2 -3 -4 -4 -4 -4 -3 -1 -2 -2 -3 -3 -3
-4 -4 -3 -3 -3 -3 -3 -3 -2 -2 -2 -1 -2 -2 -2 -1 -1 -2 -1 -2 -1 -0 -1 -1 -1 0 -0 -1 -2 -2 -2 -3 -2 -2 -3 -4 -5 -5 -5 -5 -5 -2 -2 -3 -4 -5 -5
-5 -4 -4 -4 -4 -3 -3 -3 -2 -3 -2 -1 -2 -2 -2 -2 -3 -1 -1 -2 -1 -2 -1 -1 0 -1 -2 -2 -2 -3 -3 -3 -2 -2 -4 -4 -5 -5 -5 -5 -4 -3 -3 -4 -5 -5 -5
-5 -5 -4 -4 -4 -3 -3 -3 -3 -3 -3 -2 -2 -2 -2 -2 -2 -2 -2 -1 -3 -3 -4 -2 -1 -2 -2 -3 -5 -5 -4 -3 -3 -2 -2 -4 -4 -5 -5 -6 -5 -4 -5 -5 -5 -6 -7
-6 -6 -5 -5 -4 -4 -4 -3 -3 -3 -3 -2 -2 -2 -2 -2 -2 -2 -2 -3 -2 -3 -5 -3 -2 -3 -3 -5 -5 -4 -4 -4 -4 -3 -3 -3 -3 -4 -4 -4 -4 -4 -4 -7 -8 -7 -7
-6 -6 -6 -5 -5 -5 -4 -4 -4 -3 -3 -3 -3 -3 -3 -2 -2 -2 -2 -2 -2 -1 -3 -3 -5 -4 -4 -5 -5 -5 -6 -5 -5 -4 -4 -4 -4 -4 -5 -4 -5 -6 -7 -8 -7 -7 -7